Location: Bacharowice
(49.9333°N, 19.5833°E)
Time: 06:51:08
(UTC+00:00)

Cosmos 2074 Rocket - Pass Details

Date: 11 May 2021
Orbit: 967 x 986 km, 82.9° (Epoch: 21 June)

Event Time Altitude Azimuth Distance (km) Brightness Sun altitude
Rises 19:23:41 0° 353° (N) 3,706 7.9 -9.6°
Reaches altitude 10° 19:26:21 10° 360° (N) 2,755 7.1 -9.9°
Maximum altitude 19:32:24 46° 73° (ENE) 1,304 4.5 -10.6°
Enters shadow 19:37:33 14° 142° (SE) 2,440 5.4 -11.2°
